Regional Weather Roundup
Issued by NWS

Home | Current Version | Previous Version | Text Only | Print | Product List | Glossary Off
Versions: 1 2 3 4 5 6 7 8 9 10 11 12 13 14 15 16 17 18 19 20 21 22 23 24 25 26 27 28 29 30 31 32 33 34 35 36 37 38 39 40 41 42 43 44 45 46 47 48 49 50

000
ASUS45 KBOU 242307
RWRCO

WEATHER ROUNDUP FOR COLORADO
NATIONAL WEATHER SERVICE DENVER/BOULDER CO
400 PM MST MON NOV 24 2014

NOTE: "FAIR" INDICATES FEW OR NO CLOUDS BELOW 12000 FEET WITH NO
SIGNIFICANT WEATHER AND/OR OBSTRUCTIONS TO VISIBILITY.

COZ001>005-013-030-031-250000-
...NORTHWEST COLORADO...

CITY           SKY/WX    TMP DP  RH WIND       PRES   REMARKS
CRAIG          PTCLDY    24  14  65 S7        30.22R WCI  16
HAYDEN         PTCLDY    25  12  58 W3        30.20R
MEEKER         MOCLDY    25  17  72 W5        30.23R WCI  19
MOUNT WERNER   NOT AVBL
STEAMBOAT SPGS CLOUDY    24  15  67 W12       30.18R WCI  13
WALDEN         CLOUDY    18  12  79 NW21G32   30.12R VSB 1   WCI   1
$$

COZ006>008-011-250000-
...WEST CENTRAL VALLEYS...

CITY           SKY/WX    TMP DP  RH WIND       PRES   REMARKS
GRAND JUNCTION PTCLDY    40  11  30 NW15      30.24R
MONTROSE       PTCLDY    35  15  44 NW14      30.25R WCI  26
EAGLE          PTCLDY    25  23  93 SW7       30.22R WCI  17
RIFLE          FLURRIES  30  25  81 E6        30.26R WCI  24
DELTA          PTCLDY    38  23  54 W6        30.26R
NUCLA          MOCLDY    34  18  51 W7        30.28R WCI  28
$$

COZ017>023-064>068-250000-
...SOUTHWEST COLORADO...

CITY           SKY/WX    TMP DP  RH WIND       PRES   REMARKS
DURANGO        PTCLDY    32   9  38 NW18G28   30.15R WCI  20
CORTEZ         CLEAR     36  16  44 N10       30.23R
PAGOSA SPRINGS MOCLDY    32  -1  24 N3        30.13R
TELLURIDE      FLURRIES  20   8  59 NW6       30.18R WCI  12
WOLF CREEK PAS CLOUDY     7  -6  56 MISG      30.06R
$$

COZ009-010-012-014-032>034-037-058>063-250000-
...CENTRAL COLORADO...

CITY           SKY/WX    TMP DP  RH WIND       PRES   REMARKS
ASPEN          MOCLDY    23  14  68 N13G22    30.15R HAZE    WCI  11
BUENA VISTA    CLOUDY    23  12  63 NW14      30.11R WCI  10
COPPER MTN     CLOUDY    10   3  72 MISG      30.01R
BERTHOUD PASS  SNOW       1  -4  78 NW22G38   29.98R VSB<1/4 WCI -21
COTTONWOOD PAS LGT SNOW  19  12  73 N5        30.08R WCI  13
GUNNISON       MOCLDY    19  10  68 E5        30.18R WCI  13
KREMMLING      FLURRIES  23  16  74 NW6       30.16R WCI  16
LEADVILLE      MOCLDY    12   3  67 N9        30.06R WCI   0
MONARCH PASS     N/A      7   3  85 MISG      30.12R
SALIDA         CLOUDY    26  20  79 CALM      30.20R
SUNLIGHT       CLOUDY   N/A N/A N/A W5        30.14R
WILKERSON PASS CLOUDY    10   1  67 N16G29    30.02R WCI  -7
$$

COZ069>075-250000-
...SAN LUIS VALLEY/SANGRE DE CRISTO MOUNTAINS...

CITY           SKY/WX    TMP DP  RH WIND       PRES   REMARKS
ALAMOSA        MOCLDY    29   3  33 NW21G31   30.09R WCI  16
LA VETA PASS   CLOUDY    19   3  49 W3        30.03R
SAGUACHE       NOT AVBL
$$

COZ035-036-038>040-250000-
...NORTHERN COLORADO FRONT RANGE...

CITY           SKY/WX    TMP DP  RH WIND       PRES   REMARKS
DENVER INTL AP MOCLDY    34  14  43 N21G29    30.09R WCI  22
DMNS CITY PARK   N/A     36  14  41 N9G17     30.11R
AURORA         MOCLDY    33  13  42 N21G26    30.09R WCI  22
FRONT RANGE AP MOCLDY    36  16  44 N20G29    30.09R
ERIE MUNI ARPT MOCLDY    38  12  35 N17G28    30.10R
BOULDER MUN AP MOCLDY    37  10  32 N15       30.09R
CENTENNIAL     MOCLDY    30  21  69 N6        30.09R WCI  24
BROOMFIELD     MOCLDY    37  12  35 N13G23    30.09R
FORT COLLINS   PTCLDY    36  12  38 N25G35    30.11R
LONGMONT       PTCLDY    40  13  34 N14G24    30.13R
$$

COZ041-046-047-076>085-087-088-250000-
...PIKES PEAK/PALMER DIVIDE AND SOUTHERN FOOTHILLS...

CITY           SKY/WX    TMP DP  RH WIND       PRES   REMARKS
COLO. SPRINGS  CLOUDY    32  17  54 N24G30    30.07R WCI  19
A. F. ACADEMY  CLOUDY    32   3  29 N10       30.06R WCI  23
ELLICOTT       NOT AVBL
FALCON         NOT AVBL
FORT CARSON    NOT AVBL
LIMON          MOCLDY    31  18  58 N28G37    30.06R WCI  17
MONUMENT HILL  CLOUDY    28  16  59 N13       30.06R WCI  18
TRINIDAD       CLOUDY    35  16  45 NW10      30.05R WCI  27
$$

COZ042>045-048>051-090-091-250000-
...NORTHEAST COLORADO...

CITY           SKY/WX    TMP DP  RH WIND       PRES   REMARKS
GREELEY ARPT   PTCLDY    36  19  51 N15       30.12R
AKRON          CLOUDY    35  22  58 NW25      30.06R WCI  23
BURLINGTON     MOCLDY    38  23  55 NW16G28   30.04R
WRAY           CLOUDY    39  28  65 NW15G26   30.05R
STERLING       CLOUDY    39  28  65 N15       30.06R
HOLYOKE        CLOUDY    37  28  70 NW13G22   30.04R
FORT MORGAN    CLOUDY    35  20  55 NW16      30.09R WCI  25
$$

COZ086-089-092>099-250000-
...SOUTHEAST COLORADO...

CITY           SKY/WX    TMP DP  RH WIND       PRES   REMARKS
PUEBLO         CLOUDY    40  15  36 NE26G37   30.07R
LA JUNTA       MOCLDY    43  15  32 N23G36    30.06R
LAMAR          MOCLDY    46  13  26 N26G35    30.02R
SPRINGFIELD      N/A     39  14  36 N8        30.03R
$$


USA.gov is the U.S. government's official web portal to all federal, state and local government web resources and services.